Weather History for Fort Worth, TX

Change the Weather History Date:

Friday, November 2, 2012

  Actual Average Record
Temperature  
Mean Temperature 72 °F -  
Max Temperature 87 °F 67 °F 87 °F (2012)
Min Temperature 57 °F 49 °F 32 °F (2013)
Cooling Degree Days 6    
Growing Degree Days 22 (Base 50)    
Moisture  
Dew Point 53 °F    
Average Humidity 54    
Maximum Humidity 81    
Minimum Humidity 31    
Precipitation  
Precipitation 0.00 in - - ()
Sea Level Pressure  
Sea Level Pressure 29.92 in    
Wind  
Wind Speed 6 mph (South)    
Max Wind Speed 15 mph    
Max Gust Speed 22 mph    
Visibility 10 miles    
Events      
Averages and records for this station are not official NWS values.
T = Trace of Precipitation, MM = Missing Value Source: NWS Daily Summary

Daily Weather History Graph

Daily Weather History Graph

Search for Another Location

Airport:

Trip Planner

Search our weather history database for the weather conditions in past years. The results will help you decide how hot, cold, wet, or windy it might be!

Date:

Astronomy

Nov. 02, 2012 Rise Set
Actual Time 7:48 AM CDT 6:37 PM CDT
Civil Twilight 7:22 AM CDT 7:02 PM CDT
Nautical Twilight 6:53 AM CDT 7:31 PM CDT
Astronomical Twilight 6:24 AM CDT 8:00 PM CDT
Moon 9:31 PM CDT (11/2) 11:03 AM CDT (11/2)
Length of Visible Light 11h 39m
Length of Day
10h 48m
Waning Gibbous, 87% of the Moon is Illuminated
Nov 2
Waning Gibbous
Nov 6
Last Quarter
Nov 13
New
Nov 20
First Quarter
Nov 28
Full

Hourly Weather History & Observations

Time (CDT) Temp. Heat Index Dew Point Humidity Pressure Visibility Wind Dir Wind Speed Gust Speed Precip Events Conditions
12:53 AM 64.0 °F - 46.9 °F 54% 29.93 in 10.0 mi SSW 5.8 mph - N/A   Clear
1:53 AM 63.0 °F - 46.9 °F 56% 29.92 in 10.0 mi WSW 3.5 mph - N/A   Clear
2:53 AM 61.0 °F - 46.9 °F 60% 29.92 in 10.0 mi Calm Calm - N/A   Clear
3:53 AM 61.0 °F - 48.9 °F 64% 29.93 in 10.0 mi Calm Calm - N/A   Clear
4:53 AM 60.1 °F - 50.0 °F 69% 29.93 in 10.0 mi Calm Calm - N/A   Clear
5:53 AM 57.0 °F - 50.0 °F 77% 29.93 in 10.0 mi SE 4.6 mph - N/A   Clear
6:53 AM 57.0 °F - 51.1 °F 81% 29.94 in 10.0 mi Calm Calm - N/A   Clear
7:53 AM 57.9 °F - 52.0 °F 81% 29.96 in 10.0 mi Calm Calm - N/A   Clear
8:53 AM 61.0 °F - 55.0 °F 81% 29.97 in 10.0 mi Calm Calm - N/A   Clear
9:53 AM 70.0 °F - 57.9 °F 65% 29.98 in 10.0 mi SSW 4.6 mph - N/A   Clear
10:53 AM 75.9 °F - 60.1 °F 58% 29.98 in 10.0 mi SSW 9.2 mph - N/A   Clear
11:53 AM 80.1 °F 80.9 °F 60.1 °F 50% 29.98 in 10.0 mi SW 13.8 mph 21.9 mph N/A   Clear
12:53 PM 82.9 °F 82.8 °F 59.0 °F 44% 29.95 in 10.0 mi SSW 13.8 mph - N/A   Clear
1:53 PM 84.0 °F 83.5 °F 57.9 °F 41% 29.91 in 10.0 mi SSW 11.5 mph 18.4 mph N/A   Clear
2:53 PM 86.0 °F 84.2 °F 54.0 °F 33% 29.89 in 10.0 mi South 15.0 mph 19.6 mph N/A   Clear
3:53 PM 86.0 °F 84.0 °F 53.1 °F 32% 29.87 in 10.0 mi South 8.1 mph 20.7 mph N/A   Clear
4:53 PM 84.9 °F - 52.0 °F 32% 29.86 in 10.0 mi SSE 11.5 mph - N/A   Clear
5:53 PM 82.9 °F - 48.9 °F 31% 29.86 in 10.0 mi South 13.8 mph 19.6 mph N/A   Clear
6:53 PM 77.0 °F - 48.0 °F 36% 29.87 in 10.0 mi SSE 10.4 mph - N/A   Clear
7:53 PM 75.9 °F - 48.9 °F 38% 29.89 in 10.0 mi South 10.4 mph - N/A   Clear
8:53 PM 75.0 °F - 53.1 °F 46% 29.90 in 10.0 mi SSE 10.4 mph - N/A   Clear
9:53 PM 73.0 °F - 55.9 °F 55% 29.91 in 10.0 mi South 12.7 mph - N/A   Clear
10:53 PM 72.0 °F - 57.0 °F 59% 29.92 in 10.0 mi South 11.5 mph - N/A   Clear
11:53 PM 71.1 °F - 57.0 °F 61% 29.92 in 10.0 mi South 10.4 mph - N/A   Clear